Weather History for Jackson, MN

Change the Weather History Date:

Wednesday, March 19, 2014

  Actual Average Record
Temperature  
Mean Temperature 36 °F -  
Max Temperature 41 °F 38 °F 77 °F (2012)
Min Temperature 30 °F 23 °F 10 °F (2013)
Degree Days  
Heating Degree Days 30    
Moisture  
Dew Point 29 °F    
Average Humidity 81    
Maximum Humidity 93    
Minimum Humidity 61    
Precipitation  
Precipitation 0.00 in - - ()
Sea Level Pressure  
Sea Level Pressure 29.92 in    
Wind  
Wind Speed 15 mph (NW)    
Max Wind Speed 22 mph    
Max Gust Speed 34 mph    
Visibility 9 miles    
Events Rain , Snow    
Averages and records for this station are not official NWS values.
T = Trace of Precipitation, MM = Missing Value Source: NWS Daily Summary

Daily Weather History Graph

Daily Weather History Graph

Search for Another Location

Airport:

Trip Planner

Search our weather history database for the weather conditions in past years. The results will help you decide how hot, cold, wet, or windy it might be!

Date:

Astronomy

Mar. 19, 2014 Rise Set
Actual Time 7:24 AM CDT 7:31 PM CDT
Civil Twilight 6:56 AM CDT 7:59 PM CDT
Nautical Twilight 6:22 AM CDT 8:33 PM CDT
Astronomical Twilight 5:48 AM CDT 9:07 PM CDT
Moon 10:57 PM CDT (3/19) 8:45 AM CDT (3/19)
Length of Visible Light 13h 03m
Length of Day
12h 06m
Waning Gibbous, 91% of the Moon is Illuminated
Mar 19
Waning Gibbous
Mar 23
Last Quarter
Mar 30
New
Apr 7
First Quarter
Apr 15
Full

Hourly Weather History & Observations

Time (CDT) Temp. Windchill Dew Point Humidity Pressure Visibility Wind Dir Wind Speed Gust Speed Precip Events Conditions
12:12 AM 30.2 °F 19.8 °F 28.4 °F 93% 29.79 in 4.0 mi North 13.8 mph 21.9 mph N/A Snow Light Snow
12:32 AM 30.2 °F 21.3 °F 28.4 °F 93% 29.79 in 2.5 mi North 10.4 mph 17.3 mph N/A Snow Light Snow
12:53 AM 30.2 °F 19.8 °F 28.4 °F 93% 29.79 in 1.5 mi North 13.8 mph 20.7 mph N/A Snow Light Snow
1:12 AM 30.2 °F 19.8 °F 26.6 °F 86% 29.79 in 2.0 mi NNW 13.8 mph 20.7 mph N/A Snow Light Snow
1:32 AM 30.2 °F 19.3 °F 28.4 °F 93% 29.79 in 2.5 mi NNW 15.0 mph 21.9 mph N/A Snow Light Snow
1:53 AM 30.2 °F 20.8 °F 26.6 °F 86% 29.80 in 5.0 mi NNW 11.5 mph 25.3 mph N/A Snow Light Snow
2:12 AM 30.2 °F 18.1 °F 26.6 °F 86% 29.80 in 7.0 mi NNW 18.4 mph 26.5 mph N/A   Overcast
2:32 AM 30.2 °F 18.9 °F 26.6 °F 86% 29.80 in 7.0 mi NNW 16.1 mph 26.5 mph N/A   Overcast
2:53 AM 30.2 °F 18.5 °F 26.6 °F 86% 29.80 in 7.0 mi NNW 17.3 mph 26.5 mph N/A   Overcast
3:12 AM 32.0 °F 19.8 °F 26.6 °F 80% 29.80 in 7.0 mi NNW 20.7 mph 24.2 mph N/A   Overcast
3:32 AM 32.0 °F 20.1 °F 26.6 °F 80% 29.81 in 7.0 mi NNW 19.6 mph 29.9 mph N/A   Overcast
3:53 AM 32.0 °F 19.5 °F 28.4 °F 87% 29.81 in 7.0 mi NNW 21.9 mph 34.5 mph N/A   Overcast
4:12 AM 32.0 °F 19.5 °F 28.4 °F 87% 29.82 in 7.0 mi NNW 21.9 mph 31.1 mph N/A   Overcast
4:32 AM 32.0 °F 20.5 °F 26.6 °F 80% 29.83 in 7.0 mi NNW 18.4 mph 26.5 mph N/A   Overcast
4:53 AM 32.0 °F 20.1 °F 28.4 °F 87% 29.83 in 7.0 mi NNW 19.6 mph 25.3 mph N/A   Overcast
5:12 AM 32.0 °F 19.5 °F 28.4 °F 87% 29.84 in 7.0 mi NNW 21.9 mph 27.6 mph N/A   Overcast
5:32 AM 32.0 °F 20.1 °F 28.4 °F 87% 29.85 in 7.0 mi NW 19.6 mph 24.2 mph N/A   Overcast
5:53 AM 32.0 °F 20.5 °F 26.6 °F 80% 29.86 in 7.0 mi NW 18.4 mph - N/A   Overcast
6:12 AM 32.0 °F 19.8 °F 28.4 °F 87% 29.86 in 7.0 mi NW 20.7 mph 26.5 mph N/A   Overcast
6:32 AM 32.0 °F 19.8 °F 26.6 °F 80% 29.87 in 7.0 mi NW 20.7 mph 26.5 mph N/A   Overcast
6:52 AM 32.0 °F 19.8 °F 26.6 °F 80% 29.87 in 7.0 mi NNW 20.7 mph 25.3 mph N/A   Overcast
7:12 AM 30.2 °F 17.8 °F 26.6 °F 86% 29.89 in 10.0 mi NW 19.6 mph 27.6 mph N/A   Overcast
7:33 AM 30.2 °F 18.5 °F 26.6 °F 86% 29.90 in 10.0 mi NW 17.3 mph 25.3 mph N/A   Overcast
7:52 AM 30.2 °F 18.9 °F 26.6 °F 86% 29.90 in 10.0 mi NW 16.1 mph - N/A   Overcast
8:13 AM 30.2 °F 18.9 °F 26.6 °F 86% 29.91 in 10.0 mi NW 16.1 mph - N/A   Overcast
8:32 AM 32.0 °F 20.8 °F 26.6 °F 80% 29.91 in 7.0 mi NW 17.3 mph - N/A   Overcast
8:53 AM 32.0 °F 20.8 °F 26.6 °F 80% 29.91 in 7.0 mi NW 17.3 mph 21.9 mph N/A   Overcast
9:12 AM 32.0 °F 21.2 °F 26.6 °F 80% 29.93 in 10.0 mi NW 16.1 mph 20.7 mph N/A   Overcast
9:32 AM 32.0 °F 20.5 °F 26.6 °F 80% 29.93 in 10.0 mi NW 18.4 mph 23.0 mph N/A   Overcast
9:53 AM 32.0 °F 21.2 °F 26.6 °F 80% 29.93 in 10.0 mi NW 16.1 mph 20.7 mph N/A   Overcast
10:12 AM 32.0 °F 21.2 °F 26.6 °F 80% 29.94 in 10.0 mi NW 16.1 mph 20.7 mph N/A   Overcast
10:32 AM 32.0 °F 20.8 °F 26.6 °F 80% 29.95 in 10.0 mi NW 17.3 mph 21.9 mph N/A   Overcast
10:53 AM 32.0 °F 20.8 °F 26.6 °F 80% 29.95 in 10.0 mi NW 17.3 mph - N/A   Overcast
11:12 AM 32.0 °F 20.8 °F 26.6 °F 80% 29.95 in 10.0 mi NW 17.3 mph 20.7 mph N/A   Overcast
11:32 AM 32.0 °F 20.8 °F 28.4 °F 87% 29.96 in 10.0 mi NW 17.3 mph 21.9 mph N/A   Overcast
11:53 AM 32.0 °F 20.8 °F 28.4 °F 87% 29.97 in 10.0 mi NW 17.3 mph 23.0 mph N/A   Overcast
12:12 PM 32.0 °F 20.5 °F 28.4 °F 87% 29.98 in 10.0 mi NW 18.4 mph 24.2 mph N/A   Overcast
12:32 PM 32.0 °F 21.6 °F 28.4 °F 87% 29.98 in 10.0 mi NW 15.0 mph - N/A   Overcast
12:53 PM 33.8 °F 24.3 °F 28.4 °F 81% 29.98 in 10.0 mi NW 13.8 mph - N/A   Overcast
1:12 PM 33.8 °F 23.5 °F 28.4 °F 81% 29.98 in 10.0 mi NW 16.1 mph 21.9 mph N/A   Overcast
1:32 PM 33.8 °F 24.3 °F 28.4 °F 81% 29.98 in 10.0 mi NW 13.8 mph 18.4 mph N/A   Overcast
1:53 PM 33.8 °F 24.3 °F 28.4 °F 81% 29.98 in 10.0 mi WNW 13.8 mph - N/A   Overcast
2:12 PM 35.6 °F 26.2 °F 28.4 °F 75% 29.98 in 10.0 mi WNW 15.0 mph 21.9 mph N/A   Overcast
2:32 PM 35.6 °F 25.9 °F 26.6 °F 70% 29.97 in 10.0 mi WNW 16.1 mph 23.0 mph N/A   Overcast
2:53 PM 37.4 °F 28.5 °F 28.4 °F 70% 29.97 in 10.0 mi WNW 15.0 mph 20.7 mph N/A   Overcast
3:12 PM 37.4 °F 28.2 °F 26.6 °F 65% 29.96 in 10.0 mi WNW 16.1 mph 21.9 mph N/A   Mostly Cloudy
3:32 PM 39.2 °F 30.5 °F 26.6 °F 61% 29.96 in 10.0 mi WNW 16.1 mph 23.0 mph N/A   Mostly Cloudy
3:53 PM 41.0 °F 33.1 °F 28.4 °F 61% 29.96 in 10.0 mi NW 15.0 mph - N/A   Mostly Cloudy
4:12 PM 39.2 °F 32.0 °F 28.4 °F 65% 29.95 in 10.0 mi WNW 11.5 mph 19.6 mph N/A   Mostly Cloudy
4:32 PM 41.0 °F 33.1 °F 28.4 °F 61% 29.95 in 10.0 mi West 15.0 mph 20.7 mph N/A   Scattered Clouds
4:53 PM 41.0 °F 33.1 °F 30.2 °F 65% 29.95 in 10.0 mi WNW 15.0 mph - N/A   Scattered Clouds
5:12 PM 41.0 °F 32.8 °F 30.2 °F 65% 29.96 in 10.0 mi WNW 16.1 mph - N/A   Mostly Cloudy
5:32 PM 41.0 °F 32.8 °F 30.2 °F 65% 29.96 in 10.0 mi West 16.1 mph 20.7 mph N/A   Mostly Cloudy
5:53 PM 41.0 °F 33.9 °F 30.2 °F 65% 29.96 in 10.0 mi West 12.7 mph - N/A   Scattered Clouds
6:12 PM 41.0 °F 34.7 °F 30.2 °F 65% 29.96 in 10.0 mi West 10.4 mph - N/A   Scattered Clouds
6:33 PM 39.2 °F 32.0 °F 30.2 °F 70% 29.97 in 10.0 mi West 11.5 mph - N/A   Scattered Clouds
6:52 PM 39.2 °F 34.2 °F 30.2 °F 70% 29.97 in 10.0 mi West 6.9 mph - N/A   Mostly Cloudy
7:12 PM 39.2 °F 34.2 °F 32.0 °F 75% 29.97 in 10.0 mi West 6.9 mph - N/A   Overcast
7:32 PM 37.4 °F 32.8 °F 32.0 °F 81% 29.97 in 10.0 mi West 5.8 mph - N/A   Mostly Cloudy
7:52 PM 37.4 °F 32.8 °F 32.0 °F 81% 29.97 in 10.0 mi West 5.8 mph - N/A   Mostly Cloudy
8:12 PM 35.6 °F 32.8 °F 32.0 °F 87% 29.97 in 10.0 mi West 3.5 mph - N/A   Overcast
8:32 PM 35.6 °F - 32.0 °F 87% 29.96 in 10.0 mi Calm Calm - N/A   Overcast
8:53 PM 37.4 °F 34.9 °F 32.0 °F 81% 29.97 in 10.0 mi WSW 3.5 mph - N/A   Overcast
9:12 PM 37.4 °F 30.8 °F 30.2 °F 75% 29.97 in 10.0 mi West 9.2 mph - N/A Rain Light Rain
9:32 PM 37.4 °F 29.8 °F 32.0 °F 81% 29.97 in 10.0 mi West 11.5 mph 16.1 mph N/A   Light Drizzle
9:52 PM 37.4 °F 32.1 °F 32.0 °F 81% 29.98 in 10.0 mi NW 6.9 mph - N/A   Overcast
10:12 PM 35.6 °F 31.7 °F 32.0 °F 87% 29.98 in 10.0 mi NW 4.6 mph - N/A   Overcast
10:33 PM 33.8 °F 29.6 °F 30.2 °F 87% 29.98 in 10.0 mi NW 4.6 mph - N/A   Overcast
10:52 PM 33.8 °F 30.8 °F 32.0 °F 93% 29.98 in 10.0 mi NNW 3.5 mph - N/A   Overcast
11:12 PM 33.8 °F 29.6 °F 32.0 °F 93% 29.98 in 10.0 mi NNW 4.6 mph - N/A   Overcast
11:33 PM 33.8 °F 30.8 °F 32.0 °F 93% 29.99 in 7.0 mi NNW 3.5 mph - N/A   Overcast
11:52 PM 33.8 °F 30.8 °F 32.0 °F 93% 29.99 in 5.0 mi NNE 3.5 mph - N/A   Overcast